Weather Roundup
Issued by NWS Corpus Christi, TX

Home | Current Version | Previous Version | Text Only | Print | Product List | Glossary On
Versions: 1 2 3 4 5 6 7 8 9 10 11 12 13 14 15 16 17 18 19 20 21 22 23 24 25 26 27 28 29 30 31 32 33 34 35 36 37 38 39 40 41 42 43 44 45 46 47 48 49 50
000
ASUS44 KCRP 201010
HRRCRP

SOUTH TEXAS REGIONAL WEATHER ROUNDUP
NATIONAL WEATHER SERVICE CORPUS CHRISTI TX
500 AM CDT WED AUG 20 2014


TXZ229>244-201100-
...CORPUS CHRISTI AREA OBSERVATIONS...

CITY           SKY/WX    TMP DP  RH WIND       PRES   REMARKS
CORPUS CHRISTI PTCLDY    80  77  90 SE6       29.89S
NAS CORPUS CHR CLEAR     83  79  88 SE10      29.88F HX  94
ROCKPORT       CLEAR     83  77  82 SE8       29.90S HX  92
KINGSVILLE NAS PTCLDY    82  79  90 SE8       29.89R HX  92
ALICE          PTCLDY    77  75  93 E5        29.89R
FALFURRIAS     CLEAR     84  71  63 SE5       29.88S
$$

...VICTORIA AREA OBSERVATIONS...

CITY           SKY/WX    TMP DP  RH WIND       PRES   REMARKS
VICTORIA       PTCLDY    81  77  88 SE10      29.91S
BEEVILLE       FAIR      78  77  95 SE6       29.90S
PLEASANTON     PTCLDY    78  73  83 SE6       29.92R
SAN ANTONIO    MOCLDY    80  74  81 S15       29.94R
$$

...LAREDO AREA OBSERVATIONS...

CITY           SKY/WX    TMP DP  RH WIND       PRES   REMARKS
LAREDO         CLEAR     81  73  76 SE15      29.89R
COTULLA        CLEAR     79  72  79 SE12      29.88S
DEL RIO        CLEAR     82  63  52 E12       29.85R
MCALLEN        CLEAR     80  76  87 SE9       29.88R
HEBBRONVILLE   CLOUDY    78  74  88 SE9       29.90S
$$

...OTHER TEXAS OBSERVATIONS...

CITY           SKY/WX    TMP DP  RH WIND       PRES   REMARKS
BROWNSVILLE    PTCLDY    78  76  93 CALM      29.89S
HOUSTON        PTCLDY    76  74  93 S3        29.94S
COL. STATION   MOCLDY    78  75  90 S7        29.93R
AUSTIN         MOCLDY    78  74  87 S7        29.93R
WACO           MOCLDY    79  71  76 S12       29.91S
FORT WORTH     CLOUDY    82  69  64 S15       29.89S
WICHITA FALLS  CLEAR     78  67  68 S12       29.86S
LUBBOCK        PTCLDY    72  61  68 S9        29.93R
EL PASO        FAIR      72  55  55 W12       29.97R
$$

...MARINE OBSERVATIONS...

STATION/POSITION TIME  SKY/WX   TEMP    WIND        PRES    VSBY  WAVE   SWELL
                                AIR SEA DIR/SP/G                  HT/PER HT/PER
                 (UTC)          (F)     (DEG/KT/KT) (MB)    (MI)  (FT/S) (FT/S)
PORT ARANSAS     1000            82 84  130/ 10/ 11 1012.6F
BUOY 90 E PORT A 1000            84 85  140/ 10/ 16 1013.2F         3/ 6   2/ 6
BUOY 45 SE BAFFI 1000            85 86  160/ 14/ 17 1011.7F         3/ 6
BUOY 200 E PT IS 1000            86 86  170/ 16/ 17 1013.1F         3/ 5
BUOY 15 E GALVES NOT AVBL
$$


USA.gov is the U.S. government's official web portal to all federal, state and local government web resources and services.